Location: Le Hiès Ruisseau
(43.3000°N, 0.4500°W)
Time: 13:43:54
(UTC+00:00)

Cosmos 2322 Rocket - Pass Details

Date: 28 January 2023
Orbit: 832 x 851 km, 71.0° (Epoch: 20 March)

Event Time Altitude Azimuth Distance (km) Brightness Sun altitude
Rises 18:01:24 0° 152° (SSE) 3,364 5.2 -10.0°
Reaches altitude 10° 18:04:56 10° 129° (SE) 2,435 4.3 -10.6°
Maximum altitude 18:07:51 15° 98° (E) 2,128 3.7 -11.1°
Enters shadow 18:08:44 14° 87° (E) 2,159 3.7 -11.3°
